User: anonymous   Login
Location: Fort Wayne
(41.1310°N, 85.1290°W)
Time: 13:35:53
(UTC-05:00)
Language:

CZ-2C R/B - Orbit

View from above orbital plane
View from above orbital plane
View from above satellite
View from above satellite

Ground track
Ground track

The orbit data is extracted from the following two-line orbital elements,

1 36089U 09061B   14353.56294550  .00000630  00000-0  16980-3 0  5110
2 36089 098.0874 019.1241 0081470 329.8060 192.6414 14.49312263269795
Epoch (UTC): 19 December 2014 13:30:38
Eccentricity: 0.0081470
inclination: 98.0874°
perigee height: 670 km
apogee height: 786 km
right ascension of ascending node: 19.1241°
argument of perigee: 329.8060°
revolutions per day: 14.49312263
mean anomaly at epoch: 192.6414°
orbit number at epoch: 26979

The dashed part of the orbit path shows where the satellite is in the earth's shadow,  

DLR